Regional Weather Roundup
Issued by NWS

Home | Current Version | Previous Version | Graphics & Text | Print | Product List | Glossary Off
Versions: 1 2 3 4 5 6 7 8 9 10 11 12 13 14 15 16 17 18 19 20 21 22 23 24 25 26 27 28 29 30 31 32 33 34 35 36 37 38 39 40 41 42 43 44 45 46 47 48 49 50

000
ASUS43 KTOP 241259
RWRKS

WEATHER ROUNDUP FOR KANSAS
NATIONAL WEATHER SERVICE GOODLAND KS
800 AM CDT THU APR 24 2014

NOTE:  "FAIR" INDICATES FEW OR NO CLOUDS BELOW 12,000 FEET WITH NO
SIGNIFICANT WEATHER AND/OR OBSTRUCTIONS TO VISIBILITY.

KSZ001>006-013>018-027>032-041>047-241400-
NORTHWEST KANSAS

CITY           SKY/WX    TMP DP  RH WIND       PRES   REMARKS
GOODLAND       PTSUNNY   46  35  65 NW17      29.94R
HAYS           PTSUNNY   54  45  71 N14       29.78R
HILL CITY      CLOUDY    53  41  63 N14       29.80R
$$

KSZ061>065-074>080-084>089-241400-
SOUTHWEST KANSAS

CITY           SKY/WX    TMP DP  RH WIND       PRES   REMARKS
DODGE CITY     LGT RAIN  51  40  65 NW20      29.84R
ELKHART          N/A     43  36  77 W10         N/A
GARDEN CITY    CLOUDY    50  39  66 W5        29.86R
GREAT BEND     CLOUDY    52  46  82 N9        29.75R
LIBERAL        CLOUDY    52  34  50 N16       29.91F
$$

KSZ066>073-081>083-090>101-241400-
SOUTHEAST KANSAS

CITY           SKY/WX    TMP DP  RH WIND       PRES   REMARKS
CHANUTE        LGT RAIN  67  58  72 S18       29.64R
COFFEYVILLE    CLOUDY    68  59  73 S13G24    29.65R
HUTCHINSON     CLOUDY    56  49  77 N14       29.69R
MEDICINE LODGE   N/A     56  49  77 N15G24    29.71R
NEWTON         CLOUDY    55  50  82 N14       29.70S
PARSONS        CLOUDY    68  58  70 S10       29.66R
WICHITA INTL   CLOUDY    58  55  90 N21       29.66R
WICHITA JABRA  CLOUDY    58  58 100 NW13      29.66R
WINFIELD       CLOUDY    66  61  84 SW7       29.64R
$$

KSZ007>012-019>026-033>040-048>060-102>105-241400-
NORTHEAST KANSAS

CITY           SKY/WX    TMP DP  RH WIND       PRES   REMARKS
CONCORDIA      CLOUDY    52  48  86 NW12      29.71R
EMPORIA        LGT RAIN  57  55  93 NE12      29.64F
LAWRENCE       RAIN      62  60  93 S5        29.67R FOG
MANHATTAN      LGT RAIN  55  55 100 NW6       29.65R
OLATHE IND     TSTM      58  54  86 SE8G20    29.67F FOG
OLATHE EXE     TSTM      57  52  83 CALM      29.66F
SALINA         CLOUDY    55  49  80 N23G29    29.69R
TOPEKA BILLARD CLOUDY    59  57  93 NE7       29.66S
TOPEKA FORBES  RAIN      58  55  90 NE6       29.66R FOG
$$



USA.gov is the U.S. government's official web portal to all federal, state and local government web resources and services.